CZ-4C DEB, 43263

Orbit data source: Space-Track

CZ-4C DEB, 43263 is space debris in SSO originally from a launch on Sat, 31 Mar 2018 UTC launched from the Taiyaun Space Center, China (TSC). Debris objects in space refer to the collection of defunct objects orbiting the Earth. Examples of debris include non-operational satellites, rocket bodies, and fragments generated from explosions, collisions, or faulty payload assembly.

Loading next visibility...
Identifier
43263, 2018-031E
Orbit
SSO
Country
Flag of CNCN / PRC
Related business
Manufacturer
Unknown
Mission
Spacecraft
Bus & Motor
Unknown
Mass
Unknown
Launch date (UTC)
2018-03-31 (8 years ago)
Launch vehicle
Unknown
Launch site
Taiyaun Space Center, China (TSC)
Object type
Payload
Rocket body
Debris
Shape & HBR
Unknown shape, 0.1 m
Radar Cross Section
Small (<0.1 m²)

Expand to show TLE details & history
Last TLE update: 13 hours ago

TLE from 13 hours ago
0 CZ-4C DEB
1 43263U 18031E   25311.27879972  .00004782  00000-0  64174-3 0  9990
2 43263  97.6941 319.3819 0039030 346.4039  13.6118 14.79262795408547
Epoch: 2025-11-07T06:41Z
TLE epoch observation values (Epoch: 2025-11-07T06:41:28.295Z)
Latitude
-0.00006°
Longitude
172.28896°
Altitude
608.088 km
Speed
7.57 km/s
True Right ascension
21h 17m 31s
True Declination
0° 00' 00"
Sunlit
Object was in daylight at epoch
Visualization orbit readout
Latitude
Unknown
Longitude
Unknown
Altitude
Unknown
Speed
Unknown
Apparent Right ascension
Unknown
Apparent Declination
Unknown
Sunlit
N/A
Visualization observer readout
Local Sidereal Time
15:49:53
Azimuth
Unknown
Elevation
Unknown
Doppler factor
Unknown
Orbital elements
Apogee altitude
656.032 km
Perigee altitude
601.337 km
Semi-major axis
7,006.822 km
Eccentricity
0.0039
Inclination
97.6941°
RAAN
319.3819°
Arg. of periapsis
346.4039°
True anomaly
13.71756°
Mean anomaly
13.6118°
Eccentric anomaly
13.66463°
Mean motion
3.70051 °/min
Orbital period
97.28 mins
BSTAR
0.00064174
Loading maneuver chart data...
Computing Atmospheric mass density...
Loading historical data...
Loading historical data...
Loading historical data...
Loading historical data...
Loading historical data...
Loading historical data...
Loading historical data...

Documentation

Showing up to 5 results
|